When you browse on this site, cookies collect data to enhance your experience and personalize the content and advertising you see.
Visit our Privacy Policy to learn more. By continuing to use the site, you agree to this use of cookies and data.
  • In Hungary
  • List of Countries
  • For 7 days
  • Water Temperature
  • Weather Map
  • News
  • Weather Widgets
  • user-avatar
    Login

    Hourly Weather Svetlyy Klyuch

    Today, 15 October, Tuesday

    Time Temperature Precipitation Wind Pressure Humidity
    00:00 +7°C° 0 mm 3 mps 755 mmHg 89%
    01:00 +7°C° 0.8 mm 3 mps 754 mmHg 91%
    02:00 +7°C° 0.8 mm 4 mps 753 mmHg 93%
    03:00 +7°C° 0 mm 4 mps 751 mmHg 95%
    04:00 +9°C° 1.5 mm 6 mps 750 mmHg 94%
    05:00 +10°C° 1.5 mm 8 mps 749 mmHg 93%
    06:00 +11°C° 1.5 mm 9 mps 748 mmHg 93%
    07:00 +12°C° 0.3 mm 9 mps 748 mmHg 91%
    08:00 +12°C° 0.3 mm 8 mps 748 mmHg 89%
    09:00 +12°C° 0 mm 7 mps 748 mmHg 89%
    10:00 +13°C° 0.1 mm 8 mps 748 mmHg 84%
    11:00 +15°C° 0.1 mm 8 mps 748 mmHg 80%
    12:00 +16°C° 0.1 mm 8 mps 748 mmHg 75%
    13:00 +15°C° 0.5 mm 7 mps 749 mmHg 78%
    14:00 +14°C° 0.5 mm 6 mps 749 mmHg 80%
    15:00 +13°C° 0.5 mm 5 mps 750 mmHg 83%
    16:00 +12°C° 0 mm 5 mps 750 mmHg 84%
    17:00 +10°C° 0 mm 5 mps 751 mmHg 85%
    18:00 +9°C° 0 mm 5 mps 752 mmHg 86%
    19:00 +8°C° 0 mm 5 mps 753 mmHg 86%
    20:00 +7°C° 0 mm 5 mps 754 mmHg 86%
    21:00 +7°C° 0 mm 5 mps 754 mmHg 86%
    22:00 +6°C° 0 mm 5 mps 755 mmHg 84%
    23:00 +5°C° 0 mm 5 mps 755 mmHg 83%

    Tomorrow, 16 October, Wednesday

    Time Temperature Precipitation Wind Pressure Humidity
    00:00 +3°C° 0 mm 5 mps 756 mmHg 82%
    01:00 +3°C° 0 mm 5 mps 757 mmHg 79%
    02:00 +3°C° 0 mm 5 mps 757 mmHg 77%
    03:00 +2°C° 0 mm 5 mps 758 mmHg 75%
    04:00 +2°C° 0 mm 5 mps 759 mmHg 73%
    05:00 +2°C° 0 mm 5 mps 759 mmHg 72%
    06:00 +2°C° 0 mm 5 mps 759 mmHg 70%
    07:00 +2°C° 0 mm 5 mps 760 mmHg 71%
    08:00 +3°C° 0 mm 5 mps 761 mmHg 72%
    09:00 +3°C° 0 mm 5 mps 761 mmHg 74%
    10:00 +3°C° 0 mm 5 mps 762 mmHg 71%
    11:00 +5°C° 0 mm 5 mps 762 mmHg 69%
    12:00 +5°C° 0 mm 5 mps 762 mmHg 67%
    13:00 +5°C° 0 mm 4 mps 762 mmHg 67%
    14:00 +5°C° 0 mm 4 mps 763 mmHg 67%
    15:00 +5°C° 0 mm 4 mps 763 mmHg 67%
    16:00 +4°C° 0 mm 4 mps 764 mmHg 71%
    17:00 +3°C° 0 mm 3 mps 764 mmHg 75%
    18:00 +3°C° 0 mm 3 mps 764 mmHg 79%
    19:00 +3°C° 0 mm 2 mps 764 mmHg 81%
    20:00 +2°C° 0 mm 2 mps 765 mmHg 83%
    21:00 +3°C° 0 mm 1 mps 765 mmHg 84%
    22:00 +3°C° 0 mm 1 mps 765 mmHg 85%
    23:00 +2°C° 0 mm 1 mps 765 mmHg 85%

    Day after tomorrow, 17 October, Thursday

    Time Temperature Precipitation Wind Pressure Humidity
    00:00 +2°C° 0 mm 1 mps 765 mmHg 85%
    01:00 +2°C° 0 mm 1 mps 765 mmHg 86%
    02:00 +2°C° 0 mm 1 mps 765 mmHg 88%
    03:00 +1°C° 0 mm 1 mps 766 mmHg 89%
    04:00 +2°C° 0 mm 1 mps 765 mmHg 88%
    05:00 +2°C° 0 mm 1 mps 765 mmHg 88%
    06:00 +2°C° 0 mm 1 mps 765 mmHg 87%
    07:00 +2°C° 0 mm 2 mps 765 mmHg 85%
    08:00 +3°C° 0 mm 2 mps 765 mmHg 82%
    09:00 +3°C° 0 mm 3 mps 765 mmHg 80%
    10:00 +4°C° 0 mm 4 mps 764 mmHg 75%
    11:00 +4°C° 0 mm 4 mps 764 mmHg 70%
    12:00 +5°C° 0 mm 5 mps 763 mmHg 66%
    13:00 +6°C° 0 mm 5 mps 763 mmHg 64%
    14:00 +5°C° 0 mm 6 mps 762 mmHg 61%
    15:00 +7°C° 0 mm 6 mps 762 mmHg 59%
    16:00 +7°C° 0 mm 6 mps 761 mmHg 61%
    17:00 +5°C° 0 mm 6 mps 760 mmHg 62%
    18:00 +5°C° 0 mm 6 mps 760 mmHg 63%
    19:00 +4°C° 0 mm 6 mps 760 mmHg 63%
    20:00 +5°C° 0 mm 5 mps 759 mmHg 64%
    21:00 +5°C° 0 mm 5 mps 759 mmHg 64%
    22:00 +5°C° 0 mm 5 mps 759 mmHg 64%
    23:00 +5°C° 0 mm 5 mps 758 mmHg 63%

    18 October, Friday

    Time Temperature Precipitation Wind Pressure Humidity
    00:00 +5°C° 0 mm 5 mps 758 mmHg 63%
    01:00 +5°C° 0 mm 5 mps 757 mmHg 64%
    02:00 +5°C° 0 mm 5 mps 757 mmHg 65%
    03:00 +5°C° 0 mm 5 mps 757 mmHg 66%
    04:00 +4°C° 0 mm 4 mps 756 mmHg 68%
    05:00 +4°C° 0 mm 4 mps 756 mmHg 70%
    06:00 +4°C° 0 mm 4 mps 756 mmHg 72%
    07:00 +5°C° 0 mm 4 mps 756 mmHg 71%
    08:00 +6°C° 0 mm 4 mps 755 mmHg 70%
    09:00 +7°C° 0 mm 4 mps 755 mmHg 69%
    10:00 +8°C° 0 mm 4 mps 755 mmHg 69%
    11:00 +10°C° 0 mm 3 mps 755 mmHg 68%
    12:00 +11°C° 0 mm 3 mps 755 mmHg 68%
    13:00 +12°C° 0 mm 2 mps 755 mmHg 70%
    14:00 +12°C° 0 mm 2 mps 755 mmHg 72%
    15:00 +12°C° 0 mm 1 mps 755 mmHg 74%
    16:00 +10°C° 0 mm 2 mps 756 mmHg 78%
    17:00 +10°C° 0 mm 2 mps 756 mmHg 81%
    18:00 +9°C° 0 mm 2 mps 756 mmHg 85%
    19:00 +7°C° 0.2 mm 4 mps 756 mmHg 86%
    20:00 +6°C° 0.2 mm 5 mps 757 mmHg 86%
    21:00 +4°C° 0.2 mm 6 mps 757 mmHg 86%
    22:00 +4°C° 0.1 mm 6 mps 758 mmHg 85%
    23:00 +3°C° 0.1 mm 6 mps 758 mmHg 83%

    19 October, Saturday

    Time Temperature Precipitation Wind Pressure Humidity
    00:00 +3°C° 0.1 mm 6 mps 758 mmHg 81%
    01:00 +3°C° 0 mm 5 mps 758 mmHg 79%
    02:00 +2°C° 0 mm 5 mps 759 mmHg 77%
    03:00 +2°C° 0 mm 5 mps 759 mmHg 75%
    04:00 +2°C° 0 mm 5 mps 760 mmHg 77%
    05:00 +1°C° 0 mm 4 mps 760 mmHg 79%
    06:00 0°C° 0 mm 4 mps 760 mmHg 80%
    07:00 +1°C° 0 mm 4 mps 761 mmHg 78%
    08:00 +1°C° 0 mm 4 mps 761 mmHg 76%
    09:00 +1°C° 0 mm 4 mps 761 mmHg 73%
    10:00 +3°C° 0 mm 4 mps 761 mmHg 72%
    11:00 +4°C° 0 mm 4 mps 761 mmHg 71%
    12:00 +5°C° 0 mm 4 mps 762 mmHg 70%
    13:00 +7°C° 0 mm 3 mps 762 mmHg 70%
    14:00 +7°C° 0 mm 3 mps 762 mmHg 70%
    15:00 +8°C° 0 mm 3 mps 762 mmHg 70%
    16:00 +7°C° 0 mm 3 mps 762 mmHg 73%
    17:00 +7°C° 0 mm 3 mps 762 mmHg 75%
    18:00 +5°C° 0 mm 3 mps 762 mmHg 78%
    19:00 +5°C° 0 mm 3 mps 762 mmHg 78%
    20:00 +5°C° 0 mm 3 mps 762 mmHg 77%
    21:00 +5°C° 0 mm 3 mps 762 mmHg 77%
    22:00 +5°C° 0 mm 3 mps 763 mmHg 77%
    23:00 +5°C° 0 mm 3 mps 763 mmHg 78%

    20 October, Sunday

    Time Temperature Precipitation Wind Pressure Humidity
    00:00 +5°C° 0 mm 3 mps 763 mmHg 79%
    01:00 +5°C° 0 mm 3 mps 763 mmHg 80%
    02:00 +6°C° 0 mm 2 mps 763 mmHg 80%
    03:00 +5°C° 0 mm 2 mps 763 mmHg 81%
    04:00 +5°C° 0 mm 2 mps 763 mmHg 81%
    05:00 +5°C° 0 mm 2 mps 763 mmHg 82%
    06:00 +5°C° 0 mm 2 mps 764 mmHg 82%
    07:00 +5°C° 0 mm 2 mps 764 mmHg 81%
    08:00 +6°C° 0 mm 2 mps 764 mmHg 80%
    09:00 +6°C° 0 mm 2 mps 764 mmHg 79%
    10:00 +6°C° 0 mm 2 mps 765 mmHg 77%
    11:00 +7°C° 0 mm 2 mps 765 mmHg 75%
    12:00 +8°C° 0 mm 1 mps 765 mmHg 73%
    13:00 +8°C° 0 mm 1 mps 765 mmHg 72%
    14:00 +9°C° 0 mm 1 mps 765 mmHg 72%
    15:00 +9°C° 0 mm 1 mps 765 mmHg 72%
    16:00 +8°C° 0 mm 1 mps 765 mmHg 74%
    17:00 +7°C° 0 mm 1 mps 766 mmHg 77%
    18:00 +7°C° 0 mm 1 mps 766 mmHg 79%
    19:00 +6°C° 0 mm 1 mps 766 mmHg 81%
    20:00 +6°C° 0 mm 1 mps 766 mmHg 82%
    21:00 +4°C° 0 mm 2 mps 766 mmHg 84%
    22:00 +5°C° 0 mm 1 mps 766 mmHg 85%
    23:00 +5°C° 0 mm 1 mps 766 mmHg 87%
    Show more